Location: Newark
(35.2672°N, 80.7344°W)
Time: 01:17:37
(UTC+00:00)

Transit 2A Rocket - Pass Details

Date: 31 January 2020
Orbit: 591 x 912 km, 66.7° (Epoch: 21 February)

Event Time Altitude Azimuth Distance (km) Brightness Sun altitude
Rises 18:39:55 0° 327° (NNW) 3,101 7.8 35.2°
Reaches altitude 10° 18:42:12 10° 323° (NW) 2,227 7.2 35.1°
Maximum altitude 18:47:10 54° 247° (WSW) 940 6.5 34.7°
Drops below altitude 10° 18:52:35 10° 171° (S) 2,423 8.6 34.3°
Sets 18:55:11 0° 167° (SSE) 3,399 9.0 34.1°
